Regional Weather Roundup
Issued by NWS

Home | Current Version | Previous Version | Text Only | Print | Product List | Glossary Off
Versions: 1 2 3 4 5 6 7 8 9 10 11 12 13 14 15 16 17 18 19 20 21 22 23 24 25 26 27 28 29 30 31 32 33 34 35 36 37 38 39 40 41 42 43 44 45 46 47 48 49 50

000
ASUS43 KOAX 301210
RWRNE

WEATHER ROUNDUP FOR NEBRASKA
NATIONAL WEATHER SERVICE OMAHA NE
700 AM CDT THU JUL 30 2015

NOTES: SATELLITE DATA IS BEING USED TO AUGMENT CLOUD COVER ABOVE
       12000 FEET.
       "FAIR" INDICATES FEW OR NO CLOUDS BELOW 12,000 FEET WITH NO
       SIGNIFICANT WEATHER AND/OR OBSTRUCTIONS TO VISIBILITY.

  * THESE STATIONS DO NOT REPORT WEATHER SUCH AS RAIN...SNOW OR FOG.

NEZ001>004-019>022-054>056-301300-
NEBRASKA PANHANDLE

CITY           SKY/WX    TMP DP  RH WIND       PRES   REMARKS
SCOTTSBLUFF    CLEAR     56  50  80 E5        30.25R
6HR MIN TEMP:  56; 6HR MAX TEMP:  71; 6HR PCP: TRACE;

ALLIANCE       PTCLDY    56  50  80 NE3       30.26R
6HR MIN TEMP:  54; 6HR MAX TEMP:  62;

CHADRON        CLEAR     50  47  89 W6        30.25R
6HR MIN TEMP:  50; 6HR MAX TEMP:  58;

KIMBALL        CLEAR     54  51  90 CALM      30.28S
SIDNEY         CLEAR     57  55  93 SW9       30.29R
6HR MIN TEMP:  55; 6HR MAX TEMP:  65;

$$

NEZ057>060-069>072-079>082-301300-
SOUTHWEST NEBRASKA

CITY           SKY/WX    TMP DP  RH WIND       PRES   REMARKS
NORTH PLATTE   LGT RAIN  56  52  86 CALM      30.26R
6HR MIN TEMP:  55; 6HR MAX TEMP:  60; 6HR PCP: TRACE;

IMPERIAL       CLEAR     56  52  86 CALM      30.27S
6HR MIN TEMP:  53; 6HR MAX TEMP:  63;

LEXINGTON      CLEAR     54  52  93 CALM      30.25R
MCCOOK         CLEAR     56  52  86 CALM      30.25S
6HR MIN TEMP:  55; 6HR MAX TEMP:  64;

OGALLALA       CLEAR     55  52  89 CALM      30.27R
$$

NEZ005>010-023>029-035>040-094-301300-
NORTH CENTRAL NEBRASKA

CITY           SKY/WX    TMP DP  RH WIND       PRES   REMARKS
VALENTINE      CLEAR     57  51  80 SW10      30.21S
6HR MIN TEMP:  55; 6HR MAX TEMP:  63;

AINSWORTH      CLEAR     57  54  89 SW6       30.23R
BROKEN BOW     CLEAR     63  56  78 SW8       30.23R
6HR MIN TEMP:  56; 6HR MAX TEMP:  63;

O`NEILL        CLEAR     58  54  86 SW5       30.21R
ORD            CLEAR     55  53  93 CALM      30.20S
6HR MIN TEMP:  54; 6HR MAX TEMP:  62;

THEDFORD       CLEAR     61  55  78 SW5       30.25R
$$

NEZ041-046>049-061>064-073>077-083>087-301300-
SOUTH CENTRAL NEBRASKA

CITY           SKY/WX    TMP DP  RH WIND       PRES   REMARKS
GRAND ISLAND   CLEAR     58  53  84 SW6       30.23R
6HR MIN TEMP:  57; 6HR MAX TEMP:  64;

AURORA         CLEAR     57  54  90 W3        30.22R
HASTINGS       CLEAR     61  53  75 CALM      30.23S
6HR MIN TEMP:  58; 6HR MAX TEMP:  63;

HEBRON         CLEAR     56  54  92 CALM      30.23R
HOLDREGE       CLEAR     60  55  82 SW3       30.24S
KEARNEY *      CLEAR     61  52  72 W6        30.24R
YORK           CLEAR     55  54  94 CALM      30.22R
$$

NEZ011>018-030>034-042>045-301300-
NORTHEAST NEBRASKA

CITY           SKY/WX    TMP DP  RH WIND       PRES   REMARKS
NORFOLK        CLEAR     57  54  89 SW5       30.19S
6HR MIN TEMP:  55; 6HR MAX TEMP:  65;

ALBION         CLEAR     63  51  66 CALM      30.20S
BLAIR          CLEAR     62  57  84 SW3       30.19R
COLUMBUS *     CLEAR     61  52  72 W5        30.20S
FREMONT        CLEAR     60  56  88 CALM      30.19S
TEKAMAH        CLEAR     61  59  93 S6        30.17R
6HR MIN TEMP:  60; 6HR MAX TEMP:  65;

WAYNE          CLEAR     57  56  94 S6        30.18F
$$

NEZ050>053-065>068-078-088>093-301300-
SOUTHEAST NEBRASKA

CITY           SKY/WX    TMP DP  RH WIND       PRES   REMARKS
LINCOLN        CLEAR     59  56  89 S7        30.19F
6HR MIN TEMP:  59; 6HR MAX TEMP:  68;

OMAHA EPPLEY   CLEAR     65  60  84 E3        30.18R
6HR MIN TEMP:  64; 6HR MAX TEMP:  69;

BEATRICE       CLEAR     57  56  94 CALM      30.21R
FALLS CITY     CLEAR     62  62 100 CALM      30.19R
6HR MIN TEMP:  60; 6HR MAX TEMP:  69;

NEBRASKA CITY  CLEAR     63  59  88 SW8       30.19S
PLATTSMOUTH    CLEAR     64  57  77 W3        30.18S
$$

NEZ044-045-051>053-067-301300-
OMAHA AREA

CITY           SKY/WX    TMP DP  RH WIND       PRES   REMARKS
OMAHA EPPLEY   CLEAR     65  60  84 E3        30.18R
6HR MIN TEMP:  64; 6HR MAX TEMP:  69;

BLAIR          CLEAR     62  57  84 SW3       30.19R
FREMONT        CLEAR     60  56  88 CALM      30.19S
MILLARD        CLEAR     61  59  94 CALM      30.18R
OFFUTT AFB     CLEAR     58  57  99 CALM      30.17S
PLATTSMOUTH    CLEAR     64  57  77 W3        30.18S
WAHOO          FAIR      62  57  85 N5        30.19R
$$



USA.gov is the U.S. government's official web portal to all federal, state and local government web resources and services.